User: anonymous   Login
Location: Skalnate Pleso
(49.1889°N, 20.2450°E)
Time: 23:15:17
(UTC+01:00)
Language:

Iridium 45 - Orbit

View from above orbital plane
View from above orbital plane
View from above satellite
View from above satellite

Ground track
Ground track

The orbit data is extracted from the following two-line orbital elements,

1 25104U 97082A   16337.45420255  .00000137  00000-0  41964-4 0  9994
2 25104  86.3960   9.4898 0001675 122.9426 237.1931 14.34221619992176
Epoch (UTC): 02 December 2016 10:54:03
Eccentricity: 0.0001675
inclination: 86.3960°
perigee height: 776 km
apogee height: 779 km
right ascension of ascending node: 9.4898°
argument of perigee: 122.9426°
revolutions per day: 14.34221619
mean anomaly at epoch: 237.1931°
orbit number at epoch: 99217

The dashed part of the orbit path shows where the satellite is in the earth's shadow,  

DLR